Home > Time Zones > World Clock > Weather > Palau > Koror > Past weeks

Flag for Palau Weather past 2 weeks in Koror, Palau

77 °F

Sprinkles. Mostly cloudy.

Feels Like: 78 °F
Forecast: 81 / 87 °F
Wind: 26 mph from West

Location: Koror / Palau Island

Current Time: Oct 8, 2015 at 1:41:53 AM

Latest Report: Oct 8, 2015 at 12:50 AM

Visibility: 11 mi

Pressure: 29.84 "Hg

Humidity: 94%

Dew point: 75 °F

Location of KororLocation

Historic Weather in Koror — Graph


Koror temperature yesterday

Maximum temperature yesterday: 84 °F (at 9:50 AM)
Minimum temperature yesterday: 36 °F (at 2:50 PM)
Average temperature yesterday: 79 °F

Past Weeks' High & Low Weather Summary

High88 °F (Sep 24, 10:50 AM)100% (Sep 28, 1:50 AM)29.97 "Hg (Sep 28, 1:50 AM)
Low36 °F (Oct 7, 2:50 PM)66% (Sep 24, 10:50 AM)29.10 "Hg (Sep 25, 3:50 AM)
Average81 °F84%29.83 "Hg
* Reported Sep 22 11:50 PM — Oct 7 11:50 PM, Koror, Weather by CustomWeather, © 2015

Note: Actual official high and low records may vary slightly from our data, if they occured in-between our weather recording intervals... More about our weather records


Koror weather history for previous 24 hours

Time TempWeatherWind HumidityBarometerVisibility
11:50 PM
Wed, Oct 7
79 °FMostly cloudy.10 mph89%29.85 "Hg13 mi
10:50 PM79 °FSprinkles. Mostly cloudy.9 mph89%29.84 "Hg11 mi
9:50 PM81 °FMostly cloudy.9 mph94%29.85 "Hg13 mi
8:50 PM81 °FMostly cloudy.7 mph89%29.84 "Hg13 mi
7:50 PM81 °FMostly cloudy.9 mph89%29.83 "Hg13 mi
6:50 PM79 °FSprinkles. Mostly cloudy.7 mph94%29.81 "Hg11 mi
5:50 PM79 °FLots of rain. Mostly cloudy.21 mph94%29.80 "Hg6 mi
4:50 PM82 °FMostly cloudy.10 mph89%29.76 "Hg12 mi
3:50 PM81 °FMostly cloudy.16 mph84%29.75 "Hg11 mi
2:50 PM36 °FSprinkles. Mostly cloudy.16 mph100%29.76 "Hg8 mi
1:55 PM82 °FMostly cloudy.17 mph89%29.77 "Hg10 mi
12:55 PM84 °FMostly cloudy.16 mph84%29.78 "Hg11 mi
11:50 AM77 °FSprinkles. Mostly cloudy.8 mph94%29.82 "Hg7 mi
10:50 AM79 °FSprinkles. Mostly cloudy.14 mph89%29.85 "Hg5 mi
9:50 AM84 °FMostly cloudy.14 mph84%29.84 "Hg11 mi
8:50 AM81 °FMostly cloudy.8 mph89%29.84 "Hg11 mi
7:50 AM81 °FSprinkles. Mostly cloudy.16 mph89%29.80 "Hg10 mi
5:55 AM82 °FMostly cloudy.14 mph89%29.76 "Hg13 mi
4:51 AM81 °FSprinkles. Mostly cloudy.13 mph89%29.75 "Hg10 mi
3:52 AM82 °FPassing clouds.15 mph84%29.76 "Hg14 mi
2:53 AM82 °FPassing clouds.13 mph89%29.76 "Hg14 mi
1:50 AM82 °FPassing clouds.14 mph89%29.77 "Hg14 mi
Weather by CustomWeather, © 2015

See weather overviewHow to use our weather pages